Location: Newark
(41.9000°N, 12.4833°E)
Time: 02:53:09
(UTC+00:00)

AO-91 - Visible Passes

Search period start: 26 May 2019 00:00
Search period end: 05 June 2019 00:00
Orbit: 454 x 814 km, 97.7° (Epoch: 25 May)

Date Brightness Start Highest point End Pass type
(mag) Time Alt. Az. Time Alt. Az. Time Alt. Az.
26 May ? 00:03:17 10° N 00:07:52 69° NW 00:07:52 69° NW visible
26 May ? 22:49:37 10° NE 22:52:12 18° ENE 22:52:12 18° ENE visible
27 May ? 00:25:05 10° N 00:29:31 41° WNW 00:29:40 41° WNW visible
27 May ? 23:10:34 10° NNE 23:14:01 29° ENE 23:14:01 29° ENE visible
28 May ? 00:47:05 10° N 00:50:53 25° WNW 00:51:28 24° WNW visible
28 May ? 23:31:51 10° NNE 23:35:48 48° ENE 23:35:48 48° ENE visible
29 May ? 01:09:27 10° NNW 01:12:10 16° WNW 01:13:15 15° WNW visible
29 May ? 23:53:22 10° NNE 23:57:36 75° N 23:57:36 75° N visible
30 May ? 22:40:24 10° ENE 22:41:56 13° ENE 22:41:56 13° ENE visible
31 May ? 00:15:05 10° N 00:19:23 50° WNW 00:19:23 50° WNW visible
31 May ? 23:00:56 10° NE 23:03:42 22° ENE 23:03:42 22° ENE visible
01 Jun ? 00:36:59 10° N 00:40:51 29° WNW 00:41:10 29° WNW visible
01 Jun ? 23:22:03 10° NNE 23:25:29 36° ENE 23:25:29 36° ENE visible
02 Jun ? 00:59:12 10° NNW 01:02:09 18° WNW 01:02:56 17° WNW visible
02 Jun ? 23:43:27 10° NNE 23:47:15 61° NE 23:47:15 61° NE visible
03 Jun ? 01:22:21 10° NW 01:23:23 11° WNW 01:24:24 10° WNW visible
04 Jun ? 00:05:04 10° N 00:09:01 62° NW 00:09:01 62° NW visible
04 Jun ? 22:51:25 10° NE 22:53:20 16° ENE 22:53:20 16° ENE visible
